Location: Cassano d�Adda
(45.5333°N, 9.5167°E)
Time: 17:01:50
(UTC+00:00)

STARLINK-60 - Pass Details

Date: 08 December 2019
Orbit: 411 x 419 km, 53.0° (Epoch: 27 January)

Event Time Altitude Azimuth Distance (km) Brightness Sun altitude
Rises 17:30:10 0° 224° (SW) 2,382 7.9 -18.8°
Reaches altitude 10° 17:32:18 10° 219° (SW) 1,518 6.6 -19.1°
Enters shadow 17:35:29 52° 154° (SSE) 540 3.4 -19.7°
